星链-34703 (STARLINK-34703)

导读 | 豆包AI

STARLINK-34703是美国于2025年8月30日发射的星链系列卫星,隶属于SpaceX公司打造的星链星座系统。该星座旨在为全球提供高速低延迟互联网覆盖,此卫星延续了星链卫星标准化设计,部署于近地轨道,助力拓展星座全球服务范围,提升网络容量与服务稳定性。

Basic Information
目录编号:
65387
目录名称:
STARLINK-34703
国际标识:
2025-191J
轨道中心:
EARTH
卫星名称:
星链-34703
卫星全名:
星链-34703 (STARLINK-34703)
卫星状态:
在轨 (已飞行196 天)
发射日期:
2025-08-30 UTC
国别 :
美国 (US)
星等 :
--
Orbit Information
数据来源 国际轨道数据 AOE轨道数据
星历时间 2026-03-14T05:30:08+0800
16小时前
查看轨道信息
2026-03-13T10:00:00+0800
1天前
查看轨道信息
半长轴 6927.665km 6927.648km
偏心率 0.0002341 0.0002506
轨道倾角 97.604° 97.604°
近地点辐角 89.764° 79.096°
升交点赤经 305.692° 304.891°
平近点角 270.386° 199.320°
近地点 547.906km 547.774km
远地点 551.15km 551.248km
周期 95.640分钟 95.640分钟
每日圈数 15.056448 15.056501
Detailed Information
固有亮度:
5
最大亮度:
2.5
卫星平台:
Starlink V1.0
覆盖范围:
全球
运营商:
太空探索技术公司
运营商所在国:
美国
制造商(研发单位):
太空探索技术公司
制造商所在国:
美国
使用方式:
暂无
Satellite Introduction
Starlink 计划是 SpaceX 推出的全球卫星互联网项目,通过发射低轨道卫星,为全球尤其是偏远地区提供高速、低延迟的互联网服务。自 2019 年起,Starlink 已部署数千颗卫星,旨在缩小全球数字鸿沟,推动互联网普及。该项目还为军事、航空等行业提供通信支持,带来广泛经济效益。
2D Orbit Map
3D Orbit Map
Orbit Altitude Analysis Chart
Orbit Inclination Analysis Chart
Orbit Comprehensive Analysis Chart
View Comprehensive Chart